• MPC Preparation (Info)

  • MPEC 2024-F45 : 2024 FG1

    The following Minor Planet Electronic Circular may be linked-to from your own Web pages, but must not otherwise be redistributed electronically.

    A form allowing access to any MPEC is at the bottom of this page.


    Read MPEC 2024-F44 Read MPEC 2024-F46


    M.P.E.C. 2024-F45                                Issued 2024 March 20, 00:17 UT
    
         The Minor Planet Electronic Circulars contain information on unusual
             minor planets, routine data on comets and natural satellites,
             and occasional editorial announcements.  They are published
        on behalf of Division F of the International Astronomical Union by the
              Minor Planet Center, Smithsonian Astrophysical Observatory,
                              Cambridge, MA 02138, U.S.A.
    			  
                 Prepared using the Tamkin Foundation Computer Network
    
                                  MPC@CFA.HARVARD.EDU
                URL https://www.minorplanetcenter.net/    ISSN 1523-6714
    
                                    2024 FG1                                 
    
    
    Observations:
         K24F01G KC2024 02 20.55862712 13 52.958+54 29 35.28         22.43GVEF045F51
         K24F01G  C2024 03 01.52469812 41 10.722+55 28 38.00         22.19GVEF045F52
         K24F01G  C2024 03 01.53950512 41 12.978+55 28 38.52         21.93GVEF045F52
         K24F01G  C2024 03 01.55588112 41 15.473+55 28 38.77         21.87GVEF045F52
         K24F01G* C2024 03 18.55182413 43 31.686+50 49 13.78         20.67wXEF045F52
         K24F01G  C2024 03 18.56622213 43 34.979+50 48 34.75         20.64wXEF045F52
         K24F01G  C2024 03 18.58058413 43 38.274+50 47 55.51         20.66wXEF045F52
         K24F01G  C2024 03 18.63971213 43 52.146+50 45 09.20         20.56GVEF045F52
         K24F01G  C2024 03 18.64053513 43 52.354+50 45 06.84         20.56GVEF045F52
         K24F01G HC2024 03 19.12136 13 46 06.42 +50 23 02.2                VEF045204
         K24F01G KC2024 03 19.13844 13 46 10.58 +50 22 12.6                VEF045204
         K24F01G KC2024 03 19.15545 13 46 14.76 +50 21 22.8          20.7 GVEF045204
         K24F01G KC2024 03 19.31626613 47 02.45 +50 14 02.4          20.5 GVEF045H21
         K24F01G KC2024 03 19.32075313 47 03.55 +50 13 49.7          20.2 GVEF045H21
         K24F01G KC2024 03 19.32354913 47 04.19 +50 13 41.4          20.4 GVEF045H21
         K24F01G 1C2024 03 19.50467113 47 54.641+50 05 21.49         20.77GVEF045T12
         K24F01G 1C2024 03 19.50686113 47 55.154+50 05 15.21         20.87GVEF045T12
         K24F01G 1C2024 03 19.50875113 47 55.591+50 05 09.66         20.81GVEF045T12
         K24F01G  C2024 03 19.57799813 48 11.885+50 01 41.99         20.47GVEF045F52
         K24F01G  C2024 03 19.57882013 48 12.077+50 01 39.52         20.49GVEF045F52
    
    Observer details:
    204 Schiaparelli Observatory.  Observer L. Buzzi.  0.84-m f/3.5 reflector +
        CMO.
    F51 Pan-STARRS 1, Haleakala.  Observers J. Herman, T. Lowe, P. Minguez, A.
        Schultz, I. Smith.  Measurers K. Chambers, T. de Boer, J. Fairlamb, H.
        Gao, M. Huber, C.-C. Lin, E. Magnier, Y. Ramanjooloo, R. Wainscoat, R.
        Weryk.  1.8-m Ritchey-Chretien + CCD.
    F52 Pan-STARRS 2, Haleakala.  Observers J. Herman, T. Lowe, P. Minguez, A.
        Schultz, I. Smith.  Measurers K. Chambers, T. de Boer, J. Fairlamb, H.
        Gao, M. Huber, C.-C. Lin, E. Magnier, Y. Ramanjooloo, R. Wainscoat, R.
        Weryk.  1.8-m Ritchey-Chretien + CCD.
    H21 Astronomical Research Observatory, Westfield.  Observer R. Holmes.
        Measurers T. Linder, R. Holmes, L. Horn.  0.76-m f/3.0 astrograph + CCD.
    T12 University of Hawaii 88-inch telescope, Maunakea.  Observer J. Fairlamb.
        Measurers R. Weryk, J. Fairlamb, Y. Ramanjooloo, R. Wainscoat.  2.24-m
        f/10.1 reflector + CCD.
    
    Orbital elements:
    2024 FG1                                                 Earth MOID = 0.0446 AU
    Epoch 2024 Mar. 31.0 TT = JDT 2460400.5                 MPC                     
    M 357.41986              (2000.0)            P               Q                  
    n   0.34624602     Peri.  174.79389     -0.94312859     +0.32088479             
    a   2.0085355      Node    24.47789     -0.31206217     -0.76457465             
    e   0.4790411      Incl.   12.09823     -0.11456727     -0.55897993             
    P   2.85           H   23.46          G   0.15           U   6                  
    Residuals in seconds of arc
    240220 F51  0.0   0.0     240318 F52  0.1+  0.1-    240319 H21  0.1-  0.1-
    240301 F52  0.2-  0.1-    240318 F52  0.2+  0.1-    240319 T12  0.0   0.1-
    240301 F52  0.0   0.0     240319 204  0.3+  0.1+    240319 T12  0.1+  0.0
    240301 F52  0.2+  0.1+    240319 204  0.1+  0.1+    240319 T12  0.0   0.1-
    240318 F52  0.0   0.0     240319 204  0.1-  0.1+    240319 F52  0.0   0.0
    240318 F52  0.1+  0.1-    240319 H21  0.1-  0.1+    240319 F52  0.0   0.0
    240318 F52  0.1+  0.0     240319 H21  0.1+  0.2+
    
    Ephemeris:
    2024 FG1                 a,e,i = 2.01, 0.48, 12                  q = 1.0464
    Date    TT    R. A. (2000) Decl.     Delta      r    Elong.  Phase     V
    2024 02 19    12 10 00.6 +54 12 34   0.2693  1.1825   130.9    39.2    22.5
    ...
    2024 03 05    12 51 58.6 +55 22 30   0.1906  1.1149   126.1    45.9    21.8
    ...
    2024 03 13    13 20 16.7 +53 45 29   0.1511  1.0869   124.6    48.8    21.4
    ...
    2024 03 19    13 45 34.9 +50 28 38   0.1227  1.0704   124.8    49.8    20.9
    2024 03 20    13 50 12.2 +49 40 01   0.1181  1.0680   125.0    49.8    20.8
    2024 03 21    13 54 56.9 +48 45 34   0.1136  1.0658   125.3    49.7    20.7
    ...
    2024 03 27    14 26 01.8 +40 35 20   0.08777 1.0548   128.6    47.7    20.1
    ...
    2024 04 04    15 13 47.1 +17 24 27   0.06190 1.0471   138.3    39.5    19.1
    ...
    2024 04 19    16 47 58.2 -44 54 00   0.07770 1.0549   128.9    47.8    19.8
    
    A. U. Tomatic                (C) Copyright 2024 MPC           M.P.E.C. 2024-F45
    


    Read MPEC 2024-F44 Read MPEC 2024-F46


    MPEC number:

    Enter an MPEC number in one of the following forms:

    • 1997-B01 (the full form)
    • J97B01 (the packed version of the full form)
    • B01 (the abbreviated form)